This is the latest recevied weather packets stored in our database for station/object KN6WGU. If no packets are shown the sender has not sent any weather packets the latest 10 day(s).
| Time | Temp. | Humidity | Pressure | Rain* | Wind** | Luminosity | Snow |
|---|---|---|---|---|---|---|---|
| 1778159985 | 10° C | 75% | 1006.7 hPa | 0 mm | - | 58 W/m² | - |
| 1778159682 | 10° C | 74% | 1006.5 hPa | 0 mm | - | 60 W/m² | - |
| 1778159379 | 9.44° C | 75% | 1006.4 hPa | 0 mm | - | 53 W/m² | - |
| 1778159076 | 9.44° C | 75% | 1006.5 hPa | 0 mm | - | 49 W/m² | - |
| 1778158775 | 9.44° C | 75% | 1006.6 hPa | 0 mm | - | 55 W/m² | - |
| 1778158473 | 9.44° C | 74% | 1006.5 hPa | 0 mm | - | 74 W/m² | - |
| 1778158170 | 9.44° C | 75% | 1006.7 hPa | 0 mm | - | 119 W/m² | - |
| 1778157866 | 8.89° C | 75% | 1006.6 hPa | 0 mm | - | 59 W/m² | - |
| 1778157565 | 8.89° C | 75% | 1006.5 hPa | 0 mm | - | 110 W/m² | - |
| 1778157262 | 8.89° C | 75% | 1006.4 hPa | 0 mm | - | 67 W/m² | - |
| 1778156958 | 8.33° C | 76% | 1006.6 hPa | 0 mm | - | 75 W/m² | - |
| 1778156653 | 8.33° C | 76% | 1006.6 hPa | 0 mm | - | 80 W/m² | - |
| 1778156350 | 8.33° C | 76% | 1006.7 hPa | 0 mm | - | 77 W/m² | - |
| 1778156045 | 8.33° C | 76% | 1006.6 hPa | 0 mm | - | 76 W/m² | - |
| 1778155742 | 8.33° C | 77% | 1006.6 hPa | 0 mm | - | 83 W/m² | - |
| 1778155438 | 8.33° C | 77% | 1006.3 hPa | 0 mm | - | 77 W/m² | - |
| 1778155134 | 7.78° C | 77% | 1006.4 hPa | 0 mm | - | 71 W/m² | - |
| 1778154830 | 7.78° C | 78% | 1006.5 hPa | 0 mm | - | 66 W/m² | - |
| 1778154526 | 7.78° C | 78% | 1006.5 hPa | 0 mm | - | 67 W/m² | - |
| 1778154223 | 7.78° C | 78% | 1006.3 hPa | 0 mm | - | 61 W/m² | - |
| 1778153921 | 7.78° C | 79% | 1006.3 hPa | 0 mm | - | 56 W/m² | - |
| 1778153618 | 7.78° C | 79% | 1006.3 hPa | 0 mm | - | 46 W/m² | - |
| 1778153315 | 7.22° C | 79% | 1006.4 hPa | 0 mm | - | 40 W/m² | - |
| 1778153012 | 7.22° C | 79% | 1006.3 hPa | 0 mm | - | 43 W/m² | - |
| 1778152710 | 7.22° C | 80% | 1006.3 hPa | 0 mm | - | 45 W/m² | - |
* Rain latest hour (hover to see other rain measurements)
** Current wind speed in m/s (hover to see current wind gust speed)